Location: Newark
(12.0500°N, 61.7500°W)
Time: 01:10:40
(UTC+00:00)

Envisat - Pass Details

Date: 28 January 2020
Orbit: 764 x 766 km, 98.1° (Epoch: 25 February)

Event Time Altitude Azimuth Distance (km) Brightness Sun altitude
Rises 09:30:52 0° 40° (NE) 3,220 6.6 -15.2°
Reaches altitude 10° 09:34:00 10° 60° (ENE) 2,294 6.1 -14.5°
Maximum altitude 09:37:09 17° 99° (E) 1,870 6.2 -13.7°
Drops below altitude 10° 09:40:19 10° 138° (SE) 2,293 6.4 -13.0°
Sets 09:43:25 0° 159° (SSE) 3,218 6.8 -12.3°
